Simultaneous Nadir Overpasses (SNOs) Predictions

Prediction of SNOs between NOAA-19 and TERRA Satellite Orbit:

Table of predicted SNOs for the next 14.0 days since TLE Epoch: 6/1/2024
Index Date (NOAA-19) Time (NOAA-19) Lat,Lon (NOAA-19) SZA (NOAA-19 ) Date (TERRA) Time (TERRA) Lat,Lon (TERRA) SZA (TERRA ) Distance(km) Time Diff (sec)
1 06/01/2024 16:57:30 -78.92, 118.29 123.01 06/01/2024 16:58:23 -78.92, 118.28 123.00 0.40 53
2 06/01/2024 17:48:18 79.12, -72.92 57.26 06/01/2024 17:47:38 79.13, -72.87 57.26 1.46 40
3 06/03/2024 20:47:22 78.95,-118.89 56.77 06/03/2024 20:47:30 78.96,-118.80 56.78 2.26 8
4 06/05/2024 23:46:25 78.81,-164.62 56.35 06/05/2024 23:47:21 78.82,-164.56 56.37 1.67 56
5 06/06/2024 00:37:22 -79.03, 4.26 123.36 06/06/2024 00:36:38 -79.05, 4.36 123.35 2.64 44
6 06/08/2024 03:36:24 -78.91, -41.36 123.73 06/08/2024 03:36:29 -78.89, -41.47 123.75 2.83 5
7 06/10/2024 06:35:26 -78.78, -87.01 124.07 06/10/2024 06:36:19 -78.77, -87.14 124.08 2.95 53
8 06/10/2024 07:26:16 78.96, 81.57 56.16 06/10/2024 07:25:34 78.96, 81.58 56.16 0.46 42
9 06/12/2024 10:25:20 78.76, 35.47 55.77 06/12/2024 10:25:25 78.77, 35.57 55.78 2.22 5
10 06/14/2024 13:24:23 78.59, -10.37 55.45 06/14/2024 13:25:15 78.61, -10.27 55.47 2.66 52



Historial Predications of SNOs between NOAA-19 and TERRA
